Wind_Speed
14 14 14 15 15 14 14 14 14 15 16 16 18 18 18 18 17 17 16 16 17 17 16 17 18 19 20 20 19 19 18 17 16 15 15 14 14 14 13 11 10 8 6
13 13 14 14 14 15 15 15 15 15 16 16 17 18 19 19 18 18 18 17 17 17 16 17 18 20 22 22 22 21 21 20 19 18 17 16 16 15 15 13 12 10 8
12 12 13 13 14 14 15 15 15 15 16 16 17 18 19 20 20 19 19 19 19 18 18 18 19 20 23 24 24 24 24 23 22 21 20 19 18 18 17 16 14 12 10
12 12 12 13 13 13 13 14 14 15 16 16 17 18 19 20 21 21 20 20 20 20 20 19 20 21 22 24 25 25 26 26 26 25 24 23 21 20 20 18 17 15 14
10 10 10 11 11 12 12 13 13 14 15 16 17 17 19 20 20 21 22 21 22 22 22 22 21 21 23 25 26 27 28 29 28 28 27 26 25 24 23 21 20 19 17
9 9 9 10 10 11 11 11 11 12 13 14 15 17 18 18 19 20 21 22 22 23 23 24 23 23 23 24 26 28 29 30 31 31 31 29 28 27 26 24 23 22 20
8 8 9 9 9 10 10 10 10 11 12 13 14 15 16 18 19 20 21 22 22 23 24 25 25 25 25 25 26 28 29 30 32 33 33 33 32 30 29 27 26 24 23
8 8 9 9 9 9 9 9 10 10 11 11 13 14 15 16 17 18 19 21 22 23 24 25 26 27 27 27 27 28 29 30 32 34 35 36 35 34 32 31 29 27 26
8 9 9 10 10 10 10 10 11 11 11 12 13 14 15 15 16 17 18 19 21 22 24 25 26 27 28 29 30 30 30 30 32 34 37 38 38 38 36 34 33 31 29
9 10 10 10 11 11 11 12 12 13 13 13 14 15 16 17 17 18 19 20 21 22 23 25 26 28 29 30 31 32 32 32 32 33 34 38 40 40 40 38 37 34 32
11 11 11 11 12 12 13 13 14 14 15 15 15 16 17 18 19 20 21 21 22 23 24 25 26 28 29 30 32 33 33 34 34 35 35 36 40 42 42 41 40 38 36
12 12 13 13 14 14 15 16 16 17 17 18 18 18 19 19 20 21 22 23 24 25 25 26 28 29 30 31 32 34 35 36 36 36 36 36 39 41 43 44 43 41 39
12 13 14 14 15 16 17 18 18 19 19 20 21 21 22 22 22 23 23 25 25 26 27 28 29 30 31 32 33 34 35 36 38 38 38 38 39 40 42 45 46 45 43
13 13 14 15 16 18 19 20 20 21 22 22 23 23 24 25 25 26 26 26 27 29 30 31 31 32 32 33 34 35 36 37 38 39 40 40 41 42 42 43 46 47 45
14 15 16 17 19 20 21 22 22 23 24 25 25 26 27 27 28 28 29 29 30 30 32 33 34 35 35 35 36 37 38 39 40 40 41 42 43 43 43 43 45 46 46
16 17 18 19 21 22 24 25 25 26 26 27 27 28 29 30 30 31 31 32 32 33 33 35 37 37 37 37 38 38 39 41 41 42 42 43 44 44 44 45 46 47 46
19 20 21 22 24 25 26 27 27 28 29 29 30 31 31 32 32 33 34 35 35 35 35 36 38 39 40 40 41 41 41 42 43 43 44 44 44 45 46 46 47 48 49
21 23 24 25 26 27 28 29 29 30 31 32 32 33 33 33 34 35 35 36 37 37 37 37 39 41 41 42 42 43 43 43 44 45 45 45 46 46 47 47 48 49 49
24 25 26 27 28 29 30 31 31 32 33 33 34 34 35 35 36 36 36 37 37 37 37 37 38 40 41 42 43 43 43 44 44 45 46 47 47 47 48 49 49 49 50
26 27 28 29 31 32 32 33 33 34 34 35 35 36 36 37 37 37 37 37 37 37 37 36 37 38 40 41 42 43 43 44 45 46 47 48 48 48 48 49 49 49 50
29 30 31 32 33 34 34 35 35 35 36 36 37 37 38 38 38 38 37 37 37 36 36 36 36 37 38 39 40 41 42 43 44 45 47 48 49 49 49 50 50 50 50
31 32 33 34 35 35 36 36 36 36 37 37 38 39 39 39 39 38 38 37 37 36 36 36 36 36 36 38 38 39 39 41 42 45 46 47 49 50 50 51 51 51 51
34 34 35 36 37 38 37 37 37 38 38 38 39 39 40 40 39 39 38 37 37 37 36 36 35 35 36 37 37 37 38 39 39 42 44 45 48 49 50 50 51 51 51
37 37 38 39 40 40 39 39 40 39 39 39 40 41 41 41 40 39 38 37 37 37 36 35 34 34 35 36 36 37 38 38 39 41 43 43 46 47 49 49 50 50 51
39 40 40 41 41 42 42 42 42 41 41 41 42 42 42 41 40 39 37 37 37 37 36 35 33 33 34 35 35 36 36 37 37 40 42 42 43 46 48 48 49 50 51
42 42 42 43 43 43 44 44 44 43 43 44 44 44 43 42 40 38 37 36 36 36 36 34 34 33 34 35 35 35 36 36 36 38 41 41 42 45 46 47 48 49 50
Wind_Direction
284 284 286 285 282 280 277 275 274 270 269 268 264 262 260 259 259 257 257 256 249 244 242 235 232 227 224 222 221 219 217 214 211 208 206 203 201 198 196 195 193 190 186
288 288 287 285 283 280 278 276 274 271 268 267 262 259 259 259 258 257 257 256 249 249 244 238 237 232 228 225 224 224 223 221 218 214 212 210 208 206 204 203 202 201 199
295 295 293 289 287 284 281 278 275 272 269 266 262 259 260 260 259 257 256 254 250 250 249 245 240 237 233 229 227 227 226 225 224 221 217 215 214 213 212 211 211 211 210
299 297 295 293 291 288 285 281 277 274 271 269 266 262 260 260 259 257 256 254 250 248 249 248 245 241 236 233 231 230 228 228 227 226 223 220 218 217 217 217 218 218 218
308 306 303 300 298 295 292 287 280 276 273 270 268 265 262 259 258 257 256 256 254 251 249 248 248 245 242 238 235 233 231 230 229 228 227 225 223 221 221 221 221 222 223
318 317 315 311 308 304 300 296 289 283 277 274 271 268 265 263 260 258 257 257 255 253 251 250 249 247 245 243 240 236 234 233 231 230 229 228 227 225 224 224 224 224 225
323 324 324 324 321 316 310 303 297 293 288 282 276 271 267 265 263 261 259 258 256 254 251 250 249 247 246 245 243 240 237 235 234 232 231 230 229 228 227 226 226 226 226
332 333 332 330 327 325 320 313 306 301 297 291 285 280 274 269 267 264 262 260 259 256 254 252 250 249 247 246 245 243 242 239 236 234 232 231 230 230 229 229 228 228 228
337 336 336 335 333 330 326 320 313 307 302 296 292 288 284 278 272 269 267 264 261 259 257 254 252 250 249 247 246 245 243 242 240 237 234 232 232 232 231 231 230 229 229
336 336 336 335 333 329 326 321 315 310 305 300 294 290 287 284 280 276 272 269 265 262 260 257 254 251 249 248 247 246 244 243 242 240 238 235 233 233 233 232 232 231 231
334 334 335 333 330 328 325 321 316 311 306 302 298 293 289 285 282 279 276 272 269 266 262 259 256 253 251 249 247 246 245 243 243 242 241 238 235 234 234 233 233 233 233
335 335 333 330 328 326 324 321 316 311 307 303 300 296 292 288 284 281 278 275 272 269 265 262 259 256 254 251 249 246 245 244 243 243 241 240 238 235 234 233 233 233 234
336 332 328 325 324 323 322 320 317 314 310 306 302 299 295 291 288 284 281 278 275 271 268 264 261 259 256 254 251 248 246 245 244 243 242 241 239 237 236 235 234 234 234
330 326 324 323 321 320 319 318 317 315 312 309 305 301 298 294 290 287 283 280 277 274 271 267 264 261 258 255 252 250 248 246 244 243 243 242 240 239 238 236 235 234 234
324 322 321 320 319 318 318 317 315 313 311 309 306 304 301 298 295 290 286 282 278 275 272 269 266 263 260 257 254 251 249 247 245 244 243 242 241 239 239 237 235 234 234
317 317 318 318 317 317 317 316 314 312 311 308 306 304 302 301 298 294 290 286 282 277 273 270 268 265 261 258 255 253 250 248 246 245 244 243 241 240 238 237 235 234 234
314 314 314 314 314 315 315 314 313 310 309 307 305 303 302 302 299 295 292 289 285 280 275 271 269 266 263 260 256 253 250 249 246 245 244 242 241 239 238 237 236 235 235
312 311 311 312 312 313 313 312 311 309 308 307 305 304 303 302 299 296 294 290 287 283 278 273 270 267 264 261 258 255 252 250 248 246 243 242 241 239 238 237 236 236 235
306 308 309 310 311 312 312 311 310 308 307 306 305 304 303 302 300 298 296 292 289 285 280 275 271 268 265 261 258 255 252 250 248 246 244 242 241 240 239 238 236 236 235
303 304 306 308 308 309 310 310 309 309 308 307 306 305 304 303 302 299 297 294 290 286 282 277 273 269 266 263 259 256 253 250 247 245 244 243 241 240 239 238 236 236 235
303 303 305 306 306 307 308 308 308 308 307 307 307 306 306 304 302 300 297 294 290 287 283 279 275 270 266 263 260 256 253 251 248 246 244 242 241 240 238 237 236 235 235
303 304 303 305 306 307 308 308 308 308 307 307 307 307 306 303 302 300 296 293 290 287 283 279 276 271 266 263 261 258 254 251 249 247 244 242 241 239 238 236 236 235 234
303 304 304 305 305 306 307 308 308 308 307 307 307 307 306 304 302 299 295 292 289 286 282 278 275 270 266 263 261 258 255 252 249 248 245 242 241 238 237 236 235 234 234
301 303 303 304 305 306 306 306 307 307 307 306 307 307 306 304 301 299 295 292 289 285 281 278 274 270 267 265 262 259 256 253 250 248 245 242 240 238 235 234 234 233 233
300 302 303 303 304 304 304 305 305 306 306 307 307 306 305 302 300 298 295 291 288 284 280 277 274 270 267 265 263 259 256 253 250 247 246 242 239 237 233 232 232 232 231
299 300 301 302 302 303 303 304 304 305 306 307 307 305 303 301 299 296 293 290 286 282 279 277 274 270 267 264 262 260 257 253 250 247 246 242 239 236 233 231 230 230 229
Height
5879 5879 5878 5877 5877 5876 5876 5876 5876 5876 5876 5876 5876 5877 5877 5878 5879 5880 5881 5882 5882 5883 5885 5887 5888 5891 5893 5895 5897 5900 5902 5904 5906 5908 5911 5913 5914 5916 5918 5919 5920 5921 5922
5876 5876 5875 5874 5874 5873 5873 5873 5873 5873 5873 5873 5873 5873 5873 5874 5875 5876 5877 5878 5879 5880 5881 5883 5884 5887 5889 5891 5894 5896 5899 5901 5903 5906 5908 5910 5912 5914 5916 5918 5919 5920 5921
5874 5873 5872 5871 5871 5870 5870 5869 5869 5869 5869 5869 5869 5869 5870 5870 5871 5872 5873 5874 5875 5876 5877 5879 5880 5882 5885 5887 5889 5892 5895 5897 5900 5902 5905 5907 5910 5912 5914 5916 5918 5919 5920
5871 5870 5869 5868 5867 5867 5866 5866 5865 5865 5865 5865 5865 5866 5866 5867 5867 5867 5868 5870 5871 5872 5874 5875 5877 5878 5880 5882 5884 5887 5890 5892 5895 5898 5901 5903 5906 5909 5911 5913 5915 5917 5919
5868 5867 5866 5865 5864 5863 5863 5862 5862 5862 5861 5861 5861 5862 5862 5862 5863 5863 5864 5865 5867 5868 5869 5871 5872 5874 5875 5877 5879 5881 5884 5887 5890 5893 5896 5899 5902 5905 5907 5910 5912 5914 5916
5866 5865 5864 5863 5861 5860 5860 5859 5858 5858 5858 5857 5857 5857 5857 5858 5858 5859 5859 5860 5862 5863 5864 5866 5867 5869 5871 5872 5874 5876 5878 5881 5884 5887 5891 5894 5897 5900 5903 5906 5908 5911 5913
5864 5863 5861 5860 5859 5858 5857 5856 5855 5855 5854 5854 5854 5854 5854 5854 5854 5854 5854 5855 5856 5858 5859 5860 5862 5863 5865 5867 5868 5870 5872 5875 5878 5881 5884 5888 5892 5895 5898 5901 5904 5907 5909
5862 5860 5859 5858 5857 5855 5854 5853 5852 5851 5851 5851 5850 5850 5850 5850 5849 5850 5850 5850 5851 5852 5853 5854 5856 5857 5859 5861 5862 5864 5866 5868 5871 5874 5877 5881 5885 5889 5892 5895 5899 5902 5905
5860 5858 5857 5856 5854 5853 5852 5851 5849 5849 5848 5847 5847 5846 5845 5845 5845 5846 5845 5845 5846 5846 5847 5848 5849 5851 5852 5854 5856 5858 5860 5862 5864 5866 5869 5873 5878 5882 5886 5889 5893 5896 5899
5858 5857 5855 5854 5852 5851 5849 5848 5847 5845 5844 5844 5843 5842 5842 5841 5840 5840 5841 5840 5840 5840 5841 5842 5843 5844 5845 5847 5848 5850 5852 5854 5857 5859 5862 5865 5869 5874 5878 5882 5886 5890 5893
5856 5854 5853 5851 5850 5848 5847 5845 5844 5842 5841 5840 5839 5838 5837 5836 5836 5835 5835 5835 5835 5834 5835 5835 5835 5836 5837 5839 5841 5843 5845 5847 5849 5852 5854 5857 5861 5865 5870 5874 5878 5882 5886
5853 5851 5850 5848 5847 5845 5844 5842 5840 5839 5837 5836 5834 5833 5832 5831 5830 5829 5829 5828 5828 5828 5828 5828 5828 5829 5830 5831 5833 5834 5836 5838 5841 5843 5846 5849 5852 5856 5861 5865 5870 5874 5879
5851 5849 5848 5846 5844 5842 5840 5838 5836 5834 5833 5831 5829 5828 5826 5825 5824 5823 5822 5821 5820 5820 5820 5820 5820 5821 5821 5822 5824 5826 5827 5829 5832 5834 5837 5840 5844 5847 5851 5856 5861 5865 5870
5849 5847 5845 5843 5841 5839 5836 5834 5832 5829 5827 5825 5823 5822 5820 5818 5817 5815 5815 5814 5813 5812 5811 5811 5811 5812 5813 5813 5815 5816 5818 5820 5822 5825 5828 5831 5834 5838 5842 5846 5850 5855 5860
5847 5844 5842 5840 5837 5835 5832 5829 5827 5824 5822 5819 5817 5815 5812 5810 5809 5807 5806 5805 5804 5803 5802 5801 5801 5802 5803 5804 5805 5806 5807 5809 5812 5815 5817 5820 5824 5828 5832 5836 5840 5845 5850
5843 5841 5838 5836 5833 5830 5827 5824 5821 5819 5816 5813 5810 5808 5805 5802 5800 5798 5796 5795 5794 5793 5792 5790 5790 5790 5791 5792 5793 5795 5797 5798 5801 5803 5806 5809 5813 5817 5821 5825 5830 5835 5840
5839 5836 5834 5831 5828 5825 5822 5819 5815 5812 5809 5806 5803 5800 5797 5794 5791 5789 5786 5784 5783 5782 5781 5780 5778 5778 5779 5780 5781 5783 5785 5787 5789 5792 5795 5798 5802 5805 5810 5814 5819 5824 5829
5833 5831 5828 5825 5822 5819 5816 5812 5809 5805 5802 5798 5795 5792 5788 5785 5782 5779 5776 5773 5771 5769 5769 5768 5766 5765 5766 5767 5768 5770 5772 5774 5777 5780 5783 5786 5790 5794 5798 5803 5807 5812 5818
5828 5825 5822 5819 5816 5812 5809 5805 5802 5798 5794 5790 5786 5783 5779 5776 5772 5769 5765 5762 5759 5757 5756 5755 5754 5753 5753 5753 5755 5757 5759 5762 5764 5767 5770 5774 5777 5781 5786 5791 5795 5801 5806
5822 5819 5815 5812 5809 5805 5801 5798 5794 5790 5786 5781 5777 5773 5769 5765 5761 5758 5754 5751 5748 5745 5743 5742 5741 5740 5740 5740 5742 5743 5745 5748 5751 5753 5757 5760 5765 5769 5774 5779 5784 5789 5794
5815 5811 5808 5804 5801 5797 5793 5789 5785 5781 5777 5772 5768 5763 5759 5754 5750 5746 5743 5739 5736 5734 5731 5730 5729 5728 5727 5727 5728 5730 5732 5734 5737 5739 5743 5747 5751 5756 5760 5765 5770 5776 5781
5806 5803 5799 5796 5792 5788 5784 5780 5776 5772 5767 5762 5758 5753 5748 5744 5739 5735 5731 5728 5725 5722 5720 5718 5717 5716 5715 5714 5715 5717 5719 5721 5724 5726 5729 5733 5737 5742 5746 5752 5757 5763 5768
5798 5794 5790 5786 5782 5778 5774 5770 5766 5762 5757 5752 5747 5742 5737 5732 5728 5724 5720 5716 5713 5710 5708 5706 5705 5704 5703 5703 5703 5705 5706 5708 5711 5712 5715 5720 5723 5728 5733 5738 5744 5750 5756
5788 5784 5781 5776 5772 5768 5764 5760 5756 5751 5746 5741 5736 5731 5726 5721 5716 5712 5708 5705 5701 5698 5696 5694 5694 5692 5691 5691 5691 5692 5693 5696 5698 5699 5701 5706 5709 5714 5719 5725 5730 5736 5742
5778 5774 5770 5766 5761 5757 5752 5748 5744 5739 5735 5729 5724 5719 5714 5709 5704 5700 5697 5694 5690 5687 5684 5683 5682 5681 5680 5679 5679 5680 5681 5683 5685 5687 5688 5693 5697 5700 5706 5712 5717 5723 5729
5767 5763 5759 5755 5750 5746 5741 5736 5732 5727 5723 5718 5712 5707 5702 5697 5692 5688 5685 5682 5679 5675 5673 5672 5670 5669 5668 5668 5667 5668 5669 5671 5673 5675 5676 5680 5684 5687 5694 5699 5704 5710 5716